Theta_e
339 338 338 337 334 334 334 331 323 320 333 333 330 328 331 333 337 341 339 336 327 315 313 315 320 327 331 327 324 324 329 334 333 328 323 317 321 333 331 333 333 325 322
337 337 337 335 334 335 334 330 325 320 333 334 334 335 336 340 341 339 336 333 318 313 316 316 323 325 326 324 323 325 327 325 322 317 314 313 313 315 317 323 332 328 327
337 337 337 335 335 335 334 327 329 322 336 338 338 339 340 340 340 337 336 325 313 315 316 318 320 321 321 321 321 320 318 315 314 314 313 313 312 311 310 310 315 330 333
337 337 336 335 335 337 333 324 334 335 324 339 341 342 341 341 341 338 333 317 314 317 318 319 320 320 320 319 318 317 317 316 317 316 316 316 315 314 312 311 310 310 318
337 337 336 335 338 338 329 323 336 337 321 317 334 341 341 341 340 335 327 314 316 318 319 320 320 320 320 320 320 319 318 318 319 319 319 319 319 318 316 314 313 311 310
337 337 335 337 340 335 327 324 335 336 321 317 314 320 331 335 332 326 315 315 317 318 319 320 321 321 321 322 322 321 320 320 319 319 319 318 318 318 318 319 317 315 312
337 336 338 340 338 332 325 327 335 330 319 314 312 312 313 316 314 315 315 316 317 318 319 321 322 322 321 322 322 322 321 322 321 319 319 318 318 318 318 318 318 318 316
337 337 338 338 335 326 323 330 338 330 320 314 313 313 319 315 315 315 316 317 317 318 319 320 321 322 321 322 322 322 321 321 321 321 320 319 318 318 318 319 318 318 318
338 336 337 338 334 323 323 336 337 329 323 316 315 316 317 316 316 317 317 317 317 318 318 319 319 319 320 320 321 322 321 321 321 321 321 320 319 319 320 322 322 320 319
337 337 338 337 332 322 322 335 338 333 331 324 315 316 317 316 316 317 318 318 318 318 318 319 319 319 319 319 320 321 321 321 321 320 320 320 321 322 322 324 324 323 322
336 337 338 336 332 324 321 332 337 335 335 333 326 316 315 316 317 317 317 318 318 318 318 318 319 319 318 318 318 318 319 320 320 320 321 322 323 324 325 325 325 325 324
336 336 339 338 333 325 320 327 336 336 336 336 334 322 317 316 316 317 317 317 318 318 318 318 318 318 318 319 319 319 319 320 319 320 321 322 324 324 325 325 325 326 325
338 337 338 338 334 328 320 321 330 336 337 340 335 327 321 319 317 317 317 317 317 317 317 317 318 318 318 319 320 320 321 322 323 325 324 324 325 326 326 326 327 327 327
334 336 335 337 335 334 327 319 323 332 334 336 337 332 325 321 320 320 320 320 319 319 318 317 316 317 320 322 324 326 328 328 328 327 327 327 328 328 329 329 329 330 328
328 332 332 332 333 335 335 331 321 323 327 329 330 335 331 324 323 323 323 322 319 318 318 319 319 321 322 323 326 327 329 329 329 328 328 330 331 331 331 331 331 330 327
326 328 331 332 328 328 334 335 332 326 319 328 328 328 327 324 328 328 325 321 320 322 321 321 321 321 321 324 327 329 329 329 329 329 330 330 330 330 329 329 329 329 327
329 332 331 330 326 326 328 336 334 332 329 320 318 319 319 320 326 326 326 325 323 324 323 323 323 322 323 325 328 330 330 330 331 330 330 330 330 328 328 327 327 329 326
332 331 330 328 326 326 326 328 335 334 332 333 334 332 332 330 329 326 328 327 327 325 324 325 326 327 327 330 331 331 330 330 330 329 329 329 329 328 327 328 328 328 327
331 328 326 327 327 327 327 326 334 330 327 326 329 334 335 335 334 335 335 333 330 328 326 329 331 332 332 331 330 329 329 330 329 329 328 328 327 326 326 326 329 330 329
329 328 328 327 327 326 326 326 326 326 326 326 327 335 335 335 334 333 333 334 333 330 328 329 331 332 330 330 330 329 328 328 328 326 325 326 323 322 323 324 326 329 329
331 329 329 328 328 330 328 328 328 326 326 326 327 335 335 334 333 333 332 333 335 332 330 330 332 332 330 330 329 328 328 328 327 325 323 320 318 318 321 322 324 326 322
334 334 335 333 333 330 326 330 327 327 328 326 327 332 334 334 333 333 333 332 333 333 333 333 331 331 331 330 329 329 328 325 325 324 323 322 319 322 324 324 325 325 324
333 333 333 334 334 332 330 331 331 330 331 329 329 334 334 333 333 333 332 332 332 331 331 330 329 329 330 330 329 327 327 325 326 324 323 322 320 322 320 319 320 322 324
329 333 334 334 333 333 333 332 333 333 332 332 329 329 329 333 333 332 332 331 331 331 329 327 323 323 324 325 326 328 328 327 327 321 316 317 320 320 320 319 320 322 323
322 323 326 331 332 333 332 331 331 331 331 331 332 331 330 327 329 331 329 331 328 327 326 322 322 323 323 324 322 321 318 314 314 315 314 312 313 315 317 317 318 320 321
321 321 322 324 327 326 328 328 329 330 330 330 330 330 330 329 330 329 328 325 324 323 324 324 323 323 324 320 313 312 312 312 312 313 314 313 312 313 313 315 317 317 317
Wind_Speed
29 27 24 21 18 14 11 9 10 14 18 18 20 20 20 17 19 19 14 13 10 11 15 16 19 19 18 19 20 20 20 18 17 17 14 15 17 18 16 18 15 15 14
33 28 25 20 18 15 12 11 14 17 18 21 20 21 21 21 21 17 16 12 11 14 16 19 19 19 19 20 21 20 18 18 16 15 16 16 17 15 14 14 16 15 16
32 29 25 21 18 14 13 12 16 18 20 20 21 20 23 22 18 18 15 10 12 16 18 19 18 18 19 20 19 18 17 16 16 16 16 16 16 15 14 13 14 14 15
32 28 25 21 18 16 13 15 18 17 19 20 21 22 22 21 18 16 13 11 16 18 19 19 19 21 20 19 18 17 16 16 16 16 16 16 16 17 16 16 14 13 14
31 28 24 21 19 16 13 18 18 16 15 17 19 20 21 19 16 13 11 16 19 19 19 19 19 19 18 17 16 15 15 15 15 15 15 15 16 17 16 16 15 14 13
29 26 23 20 20 14 15 20 18 14 13 14 17 19 19 17 13 11 17 20 20 20 19 18 17 16 15 14 13 12 12 13 13 12 13 14 15 15 15 15 15 14 14
28 25 22 20 17 12 16 22 18 14 13 13 16 18 19 17 14 21 22 21 20 19 18 16 14 13 12 10 10 9 9 9 9 11 12 12 13 13 14 14 14 13 13
27 24 22 18 14 12 19 23 17 12 13 14 17 20 19 22 23 23 22 21 19 18 16 14 11 9 8 7 7 6 7 7 7 8 10 11 12 12 12 12 12 12 12
24 23 22 18 13 14 21 22 17 12 13 14 17 21 23 22 23 22 21 20 18 17 14 12 10 7 4 3 3 4 5 5 6 7 8 9 10 11 11 11 11 11 11
24 23 21 17 12 15 21 22 17 14 11 12 15 18 18 19 20 19 18 17 16 14 12 10 8 6 5 2 1 1 3 4 5 6 6 7 8 9 10 10 10 10 11
22 22 19 17 13 13 19 23 19 15 11 10 11 13 16 17 17 17 16 15 14 12 11 9 8 6 4 3 2 2 2 3 4 4 4 5 6 7 8 8 9 9 10
23 22 19 14 11 11 16 22 21 19 16 14 10 11 13 14 14 13 13 12 11 10 10 9 8 6 5 4 3 2 3 3 4 4 3 4 5 6 6 7 8 9 9
23 23 20 15 13 10 12 17 21 20 17 16 12 12 12 13 14 13 12 10 10 9 9 8 7 6 6 5 4 4 3 3 3 3 3 3 5 6 7 7 8 9 9
22 20 18 15 13 11 8 11 16 19 19 17 14 14 12 12 13 12 11 10 10 10 9 8 8 7 6 5 4 3 2 3 3 3 3 4 4 6 7 9 10 11 12
29 21 15 14 9 9 8 7 9 14 17 17 17 15 14 12 12 12 11 11 10 10 10 9 8 7 6 6 5 4 4 3 4 5 4 4 5 6 8 10 11 12 13
35 27 31 22 15 11 7 6 6 8 12 15 17 16 15 14 14 14 12 10 10 9 10 9 9 8 7 6 6 6 5 6 6 5 5 7 8 12 12 14 12 12 13
38 32 29 26 24 25 16 9 8 8 9 13 15 16 17 16 15 14 13 12 11 11 10 10 10 9 8 8 7 7 7 6 6 8 10 11 12 13 16 15 19 15 12
32 38 35 33 25 32 28 12 15 11 11 13 14 14 15 15 15 16 15 13 11 13 12 12 11 9 8 7 6 6 7 9 10 12 14 16 16 17 19 18 19 18 15
36 39 35 30 22 24 25 31 21 19 16 19 24 22 21 18 15 15 13 13 14 14 14 12 10 9 7 6 8 10 11 13 15 16 17 20 22 22 20 18 21 22 15
38 31 23 29 29 22 20 24 35 35 35 35 33 26 21 21 19 18 17 16 16 17 15 14 12 9 8 8 11 15 15 16 17 21 22 23 22 21 21 20 17 16 13
34 28 26 28 30 26 27 32 33 32 36 28 33 27 23 23 24 24 22 16 15 18 15 12 10 9 12 12 15 17 18 19 21 21 21 14 18 17 16 17 16 12 11
24 26 27 35 33 29 27 37 38 40 38 30 29 31 24 25 26 26 24 19 18 13 12 11 12 13 14 14 16 18 21 21 17 10 12 22 14 15 14 12 11 13 13
24 26 29 33 31 30 30 32 29 35 33 34 39 30 26 27 27 27 24 25 24 19 16 13 12 15 18 19 18 14 12 8 22 22 14 19 17 16 17 15 14 14 14
15 20 25 27 26 28 29 27 32 33 32 33 22 21 27 27 24 23 23 27 24 21 14 13 10 15 22 25 24 23 24 26 25 16 17 15 13 17 16 17 16 15 17
14 15 17 17 20 23 25 24 24 26 28 24 23 24 22 16 24 25 23 17 10 13 13 12 13 20 26 27 26 25 23 22 19 20 25 22 19 16 17 15 16 16 18
12 21 20 19 18 19 19 20 20 22 21 21 22 22 24 21 22 19 17 16 16 14 19 22 23 25 25 24 23 23 22 21 21 18 19 21 24 25 20 18 16 18 20
Wind_Direction
175 166 166 168 167 165 157 143 137 137 132 132 136 145 154 151 145 146 146 134 120 115 111 110 108 106 104 98 104 103 103 93 86 82 77 76 74 67 66 69 62 72 68
164 167 166 166 165 159 153 140 139 137 137 135 136 143 146 143 144 145 137 129 122 119 116 113 116 111 107 102 103 101 96 88 80 72 67 62 68 71 69 75 71 64 64
165 166 164 165 162 159 157 147 144 138 140 139 135 141 144 142 145 141 135 125 126 122 119 115 113 110 111 106 104 99 91 82 75 69 65 61 61 61 61 61 64 71 66
164 164 161 163 161 158 154 153 147 145 147 147 142 142 141 140 147 143 135 132 129 124 122 117 111 110 109 106 102 95 89 84 77 71 67 62 59 58 54 53 55 51 60
164 162 161 162 162 159 158 154 150 155 149 159 162 153 144 149 154 142 140 140 131 126 124 120 112 109 107 106 101 95 87 82 76 70 65 62 56 54 52 50 49 48 48
162 160 161 163 164 163 163 155 153 162 156 159 170 173 173 174 172 160 147 140 132 131 130 123 115 112 110 107 100 90 84 82 75 69 63 58 55 51 49 47 46 45 45
160 160 160 163 168 167 165 155 158 166 155 154 161 169 175 178 163 146 145 141 137 137 135 131 125 120 112 106 96 88 80 76 69 65 60 56 54 50 45 42 42 42 42
159 161 160 164 167 171 162 157 161 168 154 146 147 147 145 145 143 145 145 146 145 144 143 142 137 127 119 114 102 90 75 66 57 52 53 52 50 47 43 40 37 38 38
163 163 161 163 168 165 161 157 159 166 155 145 144 145 146 145 146 148 149 150 150 150 150 149 147 144 139 124 100 87 68 58 46 40 42 46 46 43 39 36 35 33 33
166 165 163 158 166 163 164 163 159 169 166 149 150 149 150 149 150 152 153 153 154 156 157 159 161 164 168 185 211 13 30 34 30 29 30 37 42 41 35 30 31 28 28
168 166 167 165 165 164 167 169 165 171 176 173 163 159 159 159 159 159 160 161 163 165 169 174 181 187 196 209 253 296 325 354 6 10 16 28 30 35 29 21 21 18 17
173 171 169 165 169 167 169 175 175 175 184 187 177 172 169 166 167 170 172 175 178 181 186 192 198 201 206 213 230 260 287 316 338 345 352 5 11 14 16 9 7 2 1
183 175 174 166 163 165 170 180 186 185 189 193 191 184 182 181 180 181 185 190 196 204 208 215 218 218 219 220 238 252 266 286 309 339 353 352 353 354 355 357 354 350 348
192 182 173 168 165 161 165 182 192 198 201 206 204 202 198 199 195 194 196 204 212 217 223 228 232 231 223 225 235 232 259 292 308 324 333 339 342 341 341 341 339 345 345
192 183 199 172 164 163 170 184 206 209 214 215 214 216 216 212 208 209 216 228 230 228 231 230 229 231 237 240 246 253 269 280 294 306 314 325 331 332 330 327 324 330 336
180 192 192 189 206 205 197 203 206 224 228 223 223 225 227 226 225 230 230 234 227 225 226 225 225 231 239 244 254 272 282 292 294 304 307 302 305 308 302 305 300 298 317
189 195 198 196 219 236 220 222 225 214 221 231 233 234 238 234 235 240 242 237 232 232 229 228 230 235 239 251 266 287 299 308 307 306 302 296 291 302 296 291 291 287 292
190 201 207 211 209 222 210 237 247 228 237 248 243 246 241 237 240 243 246 244 241 236 231 234 237 239 241 260 281 289 295 294 296 297 295 297 298 288 286 285 285 286 282
195 194 206 200 208 205 207 227 234 250 262 270 263 249 247 242 237 243 257 257 248 246 241 236 237 240 252 286 291 288 289 292 294 294 291 294 293 291 289 280 276 280 279
190 199 200 196 189 187 193 208 224 239 255 272 256 243 240 248 249 250 255 266 252 247 245 239 243 250 267 273 278 284 286 286 288 296 306 300 295 288 288 284 277 277 276
205 207 204 195 206 210 213 222 221 230 224 255 249 239 237 245 251 248 250 254 257 250 247 242 239 250 268 275 283 286 292 286 285 290 295 297 307 298 295 287 274 263 270
204 212 210 214 213 204 235 228 225 237 237 249 258 251 247 249 255 247 246 238 247 243 235 231 247 258 263 267 279 291 299 300 294 293 286 300 308 292 293 290 272 251 262
211 215 224 227 226 226 238 231 236 247 252 261 261 253 259 256 250 245 250 245 242 235 238 247 260 269 276 276 273 280 293 286 303 302 296 298 291 283 291 290 284 274 254
213 221 229 233 235 237 238 236 244 245 238 247 246 255 264 253 259 263 258 251 242 233 234 250 253 273 284 282 281 274 268 271 283 294 295 301 286 283 273 278 273 266 266
233 234 233 227 229 235 239 244 246 250 252 254 256 256 256 262 259 260 269 265 302 295 278 268 272 278 275 279 287 284 286 286 280 275 286 295 291 292 287 278 275 264 259
244 237 233 233 230 238 243 246 247 255 260 260 260 259 259 257 251 242 256 267 273 262 260 262 267 270 273 278 284 286 286 287 289 285 281 285 286 290 290 286 274 267 269